Location: Vienna
(48.2082°N, 16.3738°E)
Time: 22:15:09
(UTC+02:00)

ISS - Pass Details

Date: 20 July 2018
Orbit: 402 x 408 km, 51.6° (Epoch: 20 July)

Event Time Altitude Azimuth Distance (km) Brightness Sun altitude
Rises 23:45:38 0° 260° (W) 2,319 0.1 -19.2°
Reaches altitude 10° 23:47:44 10° 265° (W) 1,462 -0.9 -19.3°
Maximum altitude 23:50:58 58° 345° (NNW) 479 -3.2 -19.5°
Drops below altitude 10° 23:54:14 10° 66° (ENE) 1,469 -0.9 -19.7°
Sets 23:56:21 0° 71° (ENE) 2,332 0.1 -19.8°
